Погода в Степи

Россия / Забайкальский край     51°00′15″N   115°23′40″E
темп.,
°C
ветер,
м/с
пор.,
м/с
влажн.,
%
обл.,
%
осадки,
мм/ч
давл.,
гПа
погр.,
м
6 мая, чт
чт600:00+6св225849 0.0 100112
03:00+5ссз2268100 0.0 100311
06:00+4ссз227196 0.0 100416
09:00+8с475289 0.0 1005737
12:00+12с583399 0.0 10052478
15:00+13сз663296 0.0 10032342
18:00+14сз7727100 0.0 10022631
21:00+10сз7114271 0.0 1003788
7 мая, пт
пт700:00+6зсз5115187 0.0 1004398
03:00+5зсз51054100 0.0 1003335
06:00+3з3751100 0.0 1002286
09:00+6зсз4543100 0.0 10001042
12:00+7сз444196 0.0 9991809
15:00+8ссв7851100 0.3 9981715
18:00+7ссв6966100 0.1 1000847
21:00+7ссз3568100 0.2 1002102
8 мая, сб
сб800:00+5с336579 0.0 100539
03:00+3с33686 0.0 100730
06:00+2ссз32745 0.0 100831
09:00+7с465053 0.0 1008810
12:00+9с5743100 0.4 10072086
15:00+12с673199 0.5 10052453
18:00+12ссв563230 0.0 10042175
21:00+9ссв224213 0.0 100623
9 мая, вс
вс900:00+6ссв224987 0.0 100729
03:00+5с225628 0.0 100716
06:00+4с226392 0.0 100839
09:00+7ссв454812 0.0 1009658
12:00+11с563485 0.0 10082285
15:00+12с4625100 0.0 10062930
18:00+12с5528100 0.0 10062245
21:00+8ссв4745100 0.0 1008244
10 мая, пн
пн1000:00+7с235660 0.0 101056
03:00+5с226524 0.0 101020
06:00+4с226647 0.0 101220
09:00+8с564819 0.0 10111049
12:00+11с67359 0.0 10112078
15:00+12ссв7828100 0.0 10102744
18:00+12ссв693151 0.0 10102526
21:00+9всв334327 0.0 101142